TimeCDT,TemperatureF,Dew PointF,Humidity,Sea Level PressureIn,VisibilityMPH,Wind Direction,Wind SpeedMPH,Gust SpeedMPH,PrecipitationIn,Events,Conditions,WindDirDegrees,DateUTC
12:33 AM,6.8,-0.4,72,30.12,10.0,NNW,6.9,-,N/A,,Clear,330,2013-03-21 05:33:00
1:12 AM,6.8,-2.2,67,30.11,10.0,NW,4.6,-,N/A,,Clear,320,2013-03-21 06:12:00
1:33 AM,3.2,-2.2,78,30.11,10.0,NNW,4.6,-,N/A,,Clear,340,2013-03-21 06:33:00
1:53 AM,3.2,-2.2,78,30.11,10.0,WNW,3.5,-,N/A,,Clear,300,2013-03-21 06:53:00
2:12 AM,1.4,-2.2,85,30.11,10.0,West,5.8,-,N/A,,Clear,280,2013-03-21 07:12:00
2:33 AM,3.2,-2.2,78,30.11,10.0,West,5.8,-,N/A,,Clear,280,2013-03-21 07:33:00
2:53 AM,3.2,-2.2,78,30.11,10.0,NW,3.5,-,N/A,,Clear,310,2013-03-21 07:53:00
3:12 AM,3.2,-2.2,78,30.10,10.0,NW,3.5,-,N/A,,Clear,310,2013-03-21 08:12:00
3:33 AM,3.2,-2.2,78,30.10,10.0,NNW,3.5,-,N/A,,Clear,330,2013-03-21 08:33:00
3:52 AM,1.4,-2.2,85,30.10,10.0,NNW,3.5,-,N/A,,Clear,340,2013-03-21 08:52:00
4:13 AM,3.2,-2.2,78,30.09,10.0,NW,3.5,-,N/A,,Clear,310,2013-03-21 09:13:00
4:33 AM,1.4,-4.0,78,30.09,10.0,Calm,Calm,-,N/A,,Clear,0,2013-03-21 09:33:00
4:52 AM,-0.4,-4.0,85,30.08,10.0,Calm,Calm,-,N/A,,Clear,0,2013-03-21 09:52:00
5:13 AM,1.4,-4.0,78,30.08,10.0,NNW,3.5,-,N/A,,Clear,340,2013-03-21 10:13:00
5:33 AM,-0.4,-4.0,85,30.08,10.0,Calm,Calm,-,N/A,,Clear,0,2013-03-21 10:33:00
5:52 AM,-2.2,-5.8,85,30.08,10.0,Calm,Calm,-,N/A,,Clear,0,2013-03-21 10:52:00
6:13 AM,-2.2,-4.0,92,30.09,10.0,Calm,Calm,-,N/A,,Clear,0,2013-03-21 11:13:00
6:33 AM,-0.4,-2.2,92,30.09,10.0,Calm,Calm,-,N/A,,Clear,0,2013-03-21 11:33:00
6:53 AM,-0.4,-4.0,85,30.09,10.0,NW,3.5,-,N/A,,Clear,310,2013-03-21 11:53:00
7:13 AM,-2.2,-5.8,85,30.09,10.0,Calm,Calm,-,N/A,,Clear,0,2013-03-21 12:13:00
7:33 AM,-2.2,-5.8,85,30.09,10.0,Calm,Calm,-,N/A,,Clear,0,2013-03-21 12:33:00
7:52 AM,-2.2,-5.8,85,30.09,10.0,Calm,Calm,-,N/A,,Unknown,0,2013-03-21 12:52:00
8:13 AM,-0.4,-5.8,78,30.09,10.0,Calm,Calm,-,N/A,,Clear,0,2013-03-21 13:13:00
8:33 AM,1.4,-2.2,85,30.10,10.0,Calm,Calm,-,N/A,,Clear,0,2013-03-21 13:33:00
8:52 AM,3.2,-0.4,85,30.10,10.0,Calm,Calm,-,N/A,,Clear,0,2013-03-21 13:52:00
9:13 AM,3.2,-2.2,78,30.10,10.0,Calm,Calm,-,N/A,,Clear,0,2013-03-21 14:13:00
9:33 AM,6.8,-0.4,72,30.10,10.0,Calm,Calm,-,N/A,,Clear,0,2013-03-21 14:33:00
9:52 AM,8.6,1.4,73,30.10,10.0,Calm,Calm,-,N/A,,Clear,0,2013-03-21 14:52:00
10:13 AM,8.6,1.4,73,30.10,10.0,Calm,Calm,-,N/A,,Clear,0,2013-03-21 15:13:00
10:33 AM,10.4,1.4,67,30.09,10.0,Calm,Calm,-,N/A,,Clear,0,2013-03-21 15:33:00
10:53 AM,12.2,3.2,67,30.09,10.0,Calm,Calm,-,N/A,,Clear,0,2013-03-21 15:53:00
11:13 AM,15.8,5.0,62,30.09,10.0,Calm,Calm,-,N/A,,Clear,0,2013-03-21 16:13:00
11:32 AM,17.6,5.0,58,30.09,10.0,Calm,Calm,-,N/A,,Clear,0,2013-03-21 16:32:00
11:53 AM,15.8,5.0,62,30.08,10.0,Calm,Calm,-,N/A,,Clear,0,2013-03-21 16:53:00
12:13 PM,19.4,6.8,58,30.08,10.0,Calm,Calm,-,N/A,,Clear,0,2013-03-21 17:13:00
12:32 PM,19.4,5.0,54,30.08,10.0,Calm,Calm,-,N/A,,Clear,0,2013-03-21 17:32:00
12:53 PM,19.4,6.8,58,30.08,10.0,Calm,Calm,-,N/A,,Clear,0,2013-03-21 17:53:00
1:13 PM,19.4,6.8,58,30.08,10.0,Calm,Calm,-,N/A,,Clear,0,2013-03-21 18:13:00
1:32 PM,21.2,5.0,50,30.08,10.0,Calm,Calm,-,N/A,,Clear,0,2013-03-21 18:32:00
1:53 PM,19.4,6.8,58,30.07,10.0,Calm,Calm,-,N/A,,Clear,0,2013-03-21 18:53:00
2:12 PM,21.2,6.8,54,30.06,10.0,Calm,Calm,-,N/A,,Clear,0,2013-03-21 19:12:00
2:33 PM,21.2,6.8,54,30.06,10.0,Calm,Calm,-,N/A,,Clear,0,2013-03-21 19:33:00
2:53 PM,21.2,6.8,54,30.05,10.0,ENE,4.6,-,N/A,,Clear,70,2013-03-21 19:53:00
3:13 PM,21.2,8.6,58,30.05,10.0,NE,4.6,-,N/A,,Clear,50,2013-03-21 20:13:00
3:33 PM,21.2,6.8,54,30.05,10.0,Calm,Calm,-,N/A,,Clear,0,2013-03-21 20:33:00
3:52 PM,21.2,8.6,58,30.05,10.0,Calm,Calm,-,N/A,,Clear,0,2013-03-21 20:52:00
4:13 PM,23.0,6.8,50,30.04,10.0,NNE,3.5,-,N/A,,Clear,30,2013-03-21 21:13:00
4:32 PM,21.2,6.8,54,30.04,10.0,Calm,Calm,-,N/A,,Clear,0,2013-03-21 21:32:00
4:53 PM,23.0,8.6,54,30.04,10.0,North,4.6,-,N/A,,Clear,360,2013-03-21 21:53:00
5:13 PM,23.0,8.6,54,30.04,10.0,North,4.6,-,N/A,,Clear,350,2013-03-21 22:13:00
5:32 PM,24.8,6.8,46,30.04,10.0,Calm,Calm,-,N/A,,Clear,0,2013-03-21 22:32:00
5:53 PM,23.0,8.6,54,30.04,10.0,Calm,Calm,-,N/A,,Clear,0,2013-03-21 22:53:00
6:13 PM,21.2,8.6,58,30.04,10.0,NNW,3.5,-,N/A,,Clear,340,2013-03-21 23:13:00
6:32 PM,21.2,6.8,54,30.04,10.0,Calm,Calm,-,N/A,,Clear,0,2013-03-21 23:32:00
6:53 PM,21.2,8.6,58,30.04,10.0,WNW,4.6,-,N/A,,Clear,290,2013-03-21 23:53:00
7:13 PM,21.2,8.6,58,30.04,10.0,WNW,3.5,-,N/A,,Clear,300,2013-03-22 00:13:00
7:32 PM,19.4,8.6,63,30.04,10.0,NW,3.5,-,N/A,,Clear,310,2013-03-22 00:32:00
7:53 PM,17.6,8.6,68,30.05,10.0,Calm,Calm,-,N/A,,Clear,0,2013-03-22 00:53:00
8:13 PM,17.6,8.6,68,30.05,10.0,Calm,Calm,-,N/A,,Clear,0,2013-03-22 01:13:00
8:32 PM,17.6,8.6,68,30.05,10.0,Calm,Calm,-,N/A,,Clear,0,2013-03-22 01:32:00
8:53 PM,12.2,6.8,79,30.06,10.0,Calm,Calm,-,N/A,,Clear,0,2013-03-22 01:53:00
9:13 PM,15.8,6.8,68,30.06,10.0,Calm,Calm,-,N/A,,Clear,0,2013-03-22 02:13:00
9:32 PM,12.2,6.8,79,30.06,10.0,West,3.5,-,N/A,,Clear,260,2013-03-22 02:32:00
9:53 PM,10.4,5.0,79,30.07,10.0,West,3.5,-,N/A,,Clear,280,2013-03-22 02:53:00
10:13 PM,12.2,5.0,73,30.07,10.0,WNW,3.5,-,N/A,,Clear,290,2013-03-22 03:13:00
10:32 PM,10.4,3.2,73,30.07,10.0,Calm,Calm,-,N/A,,Clear,0,2013-03-22 03:32:00
10:53 PM,10.4,3.2,73,30.07,10.0,Calm,Calm,-,N/A,,Unknown,0,2013-03-22 03:53:00
11:13 PM,12.2,6.8,79,30.07,10.0,WNW,3.5,-,N/A,,Clear,300,2013-03-22 04:13:00
11:32 PM,10.4,5.0,79,30.08,10.0,NW,3.5,-,N/A,,Clear,310,2013-03-22 04:32:00
11:53 PM,8.6,3.2,79,30.08,10.0,West,3.5,-,N/A,,Clear,280,2013-03-22 04:53:00